Year,Month,Day,Hour,Minute,Value (Times are PST for temperature in C)
2018,07,11,00,00,14.80
2018,07,11,00,01,14.80
2018,07,11,00,02,14.80
2018,07,11,00,03,14.70
2018,07,11,00,04,14.70
2018,07,11,00,05,14.70
2018,07,11,00,06,14.70
2018,07,11,00,07,14.70
2018,07,11,00,08,14.70
2018,07,11,00,09,14.70
2018,07,11,00,10,14.70
2018,07,11,00,11,14.70
2018,07,11,00,12,14.70
2018,07,11,00,13,14.70
2018,07,11,00,14,14.70
2018,07,11,00,15,14.70
2018,07,11,00,16,14.70
2018,07,11,00,17,14.70
2018,07,11,00,18,14.70
2018,07,11,00,19,14.60
2018,07,11,00,20,14.60
2018,07,11,00,21,14.60
2018,07,11,00,22,14.60
2018,07,11,00,23,14.60
2018,07,11,00,24,14.50
2018,07,11,00,25,14.50
2018,07,11,00,26,14.50
2018,07,11,00,27,14.50
2018,07,11,00,28,14.50
2018,07,11,00,29,14.40
2018,07,11,00,30,14.40
2018,07,11,00,31,14.40
2018,07,11,00,32,14.40
2018,07,11,00,33,14.40
2018,07,11,00,34,14.40
2018,07,11,00,35,14.40
2018,07,11,00,36,14.40
2018,07,11,00,37,14.40
2018,07,11,00,38,14.30
2018,07,11,00,39,14.30
2018,07,11,00,40,14.30
2018,07,11,00,41,14.30
2018,07,11,00,42,14.30
2018,07,11,00,43,14.30
2018,07,11,00,44,14.30
2018,07,11,00,45,14.30
2018,07,11,00,46,14.30
2018,07,11,00,47,14.30
2018,07,11,00,48,14.30
2018,07,11,00,49,14.30
2018,07,11,00,50,14.30
2018,07,11,00,51,14.20
2018,07,11,00,52,14.20
2018,07,11,00,53,14.20
2018,07,11,00,54,14.20
2018,07,11,00,55,14.20
2018,07,11,00,56,14.20
2018,07,11,00,57,14.20
2018,07,11,00,58,14.20
2018,07,11,00,59,14.20
2018,07,11,01,00,14.10
2018,07,11,01,01,14.10
2018,07,11,01,02,14.10
2018,07,11,01,03,14.10
2018,07,11,01,04,14.10
2018,07,11,01,05,14.10
2018,07,11,01,06,14.10
2018,07,11,01,07,14.10
2018,07,11,01,08,14.00
2018,07,11,01,09,14.00
2018,07,11,01,10,14.00
2018,07,11,01,11,13.90
2018,07,11,01,12,13.90
2018,07,11,01,13,13.90
2018,07,11,01,14,13.90
2018,07,11,01,15,13.90
2018,07,11,01,16,13.90
2018,07,11,01,17,13.80
2018,07,11,01,18,13.80
2018,07,11,01,19,13.80
2018,07,11,01,20,13.80
2018,07,11,01,21,13.80
2018,07,11,01,22,13.80
2018,07,11,01,23,13.80
2018,07,11,01,24,13.70
2018,07,11,01,25,13.70
2018,07,11,01,26,13.70
2018,07,11,01,27,13.70
2018,07,11,01,28,13.70
2018,07,11,01,29,13.60
2018,07,11,01,30,13.60
2018,07,11,01,31,13.60
2018,07,11,01,32,13.60
2018,07,11,01,33,13.50
2018,07,11,01,34,13.50
2018,07,11,01,35,13.50
2018,07,11,01,36,13.50
2018,07,11,01,37,13.40
2018,07,11,01,38,13.40
2018,07,11,01,39,13.40
2018,07,11,01,40,13.40
2018,07,11,01,41,13.40
2018,07,11,01,42,13.40
2018,07,11,01,43,13.40
2018,07,11,01,44,13.30
2018,07,11,01,45,13.30
2018,07,11,01,46,13.30
2018,07,11,01,47,13.30
2018,07,11,01,48,13.30
2018,07,11,01,49,13.30
2018,07,11,01,50,13.20
2018,07,11,01,51,13.20
2018,07,11,01,52,13.20
2018,07,11,01,53,13.20
2018,07,11,01,54,13.20
2018,07,11,01,55,13.20
2018,07,11,01,56,13.10
2018,07,11,01,57,13.10
2018,07,11,01,58,13.10
2018,07,11,01,59,13.10
2018,07,11,02,00,13.10
2018,07,11,02,01,13.10
2018,07,11,02,02,13.10
2018,07,11,02,03,13.10
2018,07,11,02,04,13.10
2018,07,11,02,05,13.00
2018,07,11,02,06,13.00
2018,07,11,02,07,13.00
2018,07,11,02,08,13.00
2018,07,11,02,09,13.00
2018,07,11,02,10,12.90
2018,07,11,02,11,12.90
2018,07,11,02,12,12.90
2018,07,11,02,13,12.90
2018,07,11,02,14,12.90
2018,07,11,02,15,12.90
2018,07,11,02,16,12.90
2018,07,11,02,17,12.80
2018,07,11,02,18,12.80
2018,07,11,02,19,12.80
2018,07,11,02,20,12.80
2018,07,11,02,21,12.80
2018,07,11,02,22,12.80
2018,07,11,02,23,12.70
2018,07,11,02,24,12.70
2018,07,11,02,25,12.70
2018,07,11,02,26,12.70
2018,07,11,02,27,12.70
2018,07,11,02,28,12.60
2018,07,11,02,29,12.60
2018,07,11,02,30,12.60
2018,07,11,02,31,12.60
2018,07,11,02,32,12.60
2018,07,11,02,33,12.60
2018,07,11,02,34,12.60
2018,07,11,02,35,12.60
2018,07,11,02,36,12.60
2018,07,11,02,37,12.60
2018,07,11,02,38,12.50
2018,07,11,02,39,12.50
2018,07,11,02,40,12.50
2018,07,11,02,41,12.50
2018,07,11,02,42,12.40
2018,07,11,02,43,12.40
2018,07,11,02,44,12.40
2018,07,11,02,45,12.40
2018,07,11,02,46,12.40
2018,07,11,02,47,12.40
2018,07,11,02,48,12.40
2018,07,11,02,49,12.40
2018,07,11,02,50,12.40
2018,07,11,02,51,12.40
2018,07,11,02,52,12.40
2018,07,11,02,53,12.40
2018,07,11,02,54,12.30
2018,07,11,02,55,12.30
2018,07,11,02,56,12.30
2018,07,11,02,57,12.30
2018,07,11,02,58,12.30
2018,07,11,02,59,12.30
2018,07,11,03,00,12.30
2018,07,11,03,01,12.30
2018,07,11,03,02,12.30
2018,07,11,03,03,12.30
2018,07,11,03,04,12.30
2018,07,11,03,05,12.30
2018,07,11,03,06,12.30
2018,07,11,03,07,12.20
2018,07,11,03,08,12.20
2018,07,11,03,09,12.20
2018,07,11,03,10,12.20
2018,07,11,03,11,12.20
2018,07,11,03,12,12.20
2018,07,11,03,13,12.20
2018,07,11,03,14,12.20
2018,07,11,03,15,12.20
2018,07,11,03,16,12.20
2018,07,11,03,17,12.20
2018,07,11,03,18,12.20
2018,07,11,03,19,12.20
2018,07,11,03,20,12.10
2018,07,11,03,21,12.10
2018,07,11,03,22,12.10
2018,07,11,03,23,12.10
2018,07,11,03,24,12.10
2018,07,11,03,25,12.10
2018,07,11,03,26,12.10
2018,07,11,03,27,12.10
2018,07,11,03,28,12.10
2018,07,11,03,29,12.10
2018,07,11,03,30,12.10
2018,07,11,03,31,12.10
2018,07,11,03,32,12.10
2018,07,11,03,33,12.10
2018,07,11,03,34,12.10
2018,07,11,03,35,12.10
2018,07,11,03,36,12.10
2018,07,11,03,37,12.00
2018,07,11,03,38,12.00
2018,07,11,03,39,12.00
2018,07,11,03,40,12.00
2018,07,11,03,41,11.90
2018,07,11,03,42,11.90
2018,07,11,03,43,11.90
2018,07,11,03,44,11.90
2018,07,11,03,45,11.90
2018,07,11,03,46,11.90
2018,07,11,03,47,11.90
2018,07,11,03,48,11.90
2018,07,11,03,49,11.80
2018,07,11,03,50,11.80
2018,07,11,03,51,11.80
2018,07,11,03,52,11.80
2018,07,11,03,53,11.90
2018,07,11,03,54,11.90
2018,07,11,03,55,11.90
2018,07,11,03,56,11.90
2018,07,11,03,57,11.90
2018,07,11,03,58,11.90
2018,07,11,03,59,11.90
2018,07,11,04,00,11.90
2018,07,11,04,01,11.90
2018,07,11,04,02,11.90
2018,07,11,04,03,11.90
2018,07,11,04,04,11.90
2018,07,11,04,05,11.90
2018,07,11,04,06,11.90
2018,07,11,04,07,11.90
2018,07,11,04,08,11.90
2018,07,11,04,09,11.90
2018,07,11,04,10,11.90
2018,07,11,04,11,11.90
2018,07,11,04,12,11.90
2018,07,11,04,13,11.90
2018,07,11,04,14,11.80
2018,07,11,04,15,11.80
2018,07,11,04,16,11.80
2018,07,11,04,17,11.80
2018,07,11,04,18,11.80
2018,07,11,04,19,11.80
2018,07,11,04,20,11.80
2018,07,11,04,21,11.80
2018,07,11,04,22,11.80
2018,07,11,04,23,11.80
2018,07,11,04,24,11.80
2018,07,11,04,25,11.80
2018,07,11,04,26,11.80
2018,07,11,04,27,11.80
2018,07,11,04,28,11.80
2018,07,11,04,29,11.80
2018,07,11,04,30,11.80
2018,07,11,04,31,11.80
2018,07,11,04,32,11.80
2018,07,11,04,33,11.80
2018,07,11,04,34,11.80
2018,07,11,04,35,11.80
2018,07,11,04,36,11.80
2018,07,11,04,37,11.80
2018,07,11,04,38,11.80
2018,07,11,04,39,11.80
2018,07,11,04,40,11.80
2018,07,11,04,41,11.80
2018,07,11,04,42,11.80
2018,07,11,04,43,11.80
2018,07,11,04,44,11.80
2018,07,11,04,45,11.80
2018,07,11,04,46,11.80
2018,07,11,04,47,11.80
2018,07,11,04,48,11.80
2018,07,11,04,49,11.80
2018,07,11,04,50,11.80
2018,07,11,04,51,11.80
2018,07,11,04,52,11.80
2018,07,11,04,53,11.80
2018,07,11,04,54,11.80
2018,07,11,04,55,11.70
2018,07,11,04,56,11.70
2018,07,11,04,57,11.70
2018,07,11,04,58,11.70
2018,07,11,04,59,11.70
2018,07,11,05,00,11.70
2018,07,11,05,01,11.80
2018,07,11,05,02,11.80
2018,07,11,05,03,11.80
2018,07,11,05,04,11.80
2018,07,11,05,05,11.80
2018,07,11,05,06,11.80
2018,07,11,05,07,11.80
2018,07,11,05,08,11.80
2018,07,11,05,09,11.80
2018,07,11,05,10,11.90
2018,07,11,05,11,11.80
2018,07,11,05,12,11.90
2018,07,11,05,13,11.90
2018,07,11,05,14,11.80
2018,07,11,05,15,11.80
2018,07,11,05,16,11.80
2018,07,11,05,17,11.80
2018,07,11,05,18,11.80
2018,07,11,05,19,11.80
2018,07,11,05,20,11.80
2018,07,11,05,21,11.80
2018,07,11,05,22,11.80
2018,07,11,05,23,11.80
2018,07,11,05,24,11.80
2018,07,11,05,25,11.80
2018,07,11,05,26,11.80
2018,07,11,05,27,11.80
2018,07,11,05,28,11.80
2018,07,11,05,29,11.70
2018,07,11,05,30,11.70
2018,07,11,05,31,11.70
2018,07,11,05,32,11.70
2018,07,11,05,33,11.70
2018,07,11,05,34,11.70
2018,07,11,05,35,11.70
2018,07,11,05,36,11.70
2018,07,11,05,37,11.70
2018,07,11,05,38,11.70
2018,07,11,05,39,11.70
2018,07,11,05,40,11.70
2018,07,11,05,41,11.70
2018,07,11,05,42,11.70
2018,07,11,05,43,11.80
2018,07,11,05,44,11.80
2018,07,11,05,45,11.80
2018,07,11,05,46,11.80
2018,07,11,05,47,11.80
2018,07,11,05,48,11.90
2018,07,11,05,49,11.90
2018,07,11,05,50,11.90
2018,07,11,05,51,11.90
2018,07,11,05,52,11.90
2018,07,11,05,53,11.90
2018,07,11,05,54,11.90
2018,07,11,05,55,11.90
2018,07,11,05,56,11.90
2018,07,11,05,57,12.00
2018,07,11,05,58,12.00
2018,07,11,05,59,12.00
2018,07,11,06,00,12.00
2018,07,11,06,01,12.10
2018,07,11,06,02,12.10
2018,07,11,06,03,12.10
2018,07,11,06,04,12.10
2018,07,11,06,05,12.10
2018,07,11,06,06,12.10
2018,07,11,06,07,12.20
2018,07,11,06,08,12.20
2018,07,11,06,09,12.20
2018,07,11,06,10,12.30
2018,07,11,06,11,12.40
2018,07,11,06,12,12.50
2018,07,11,06,13,12.50
2018,07,11,06,14,12.60
2018,07,11,06,15,12.60
2018,07,11,06,16,12.70
2018,07,11,06,17,12.70
2018,07,11,06,18,12.80
2018,07,11,06,19,12.80
2018,07,11,06,20,12.90
2018,07,11,06,21,12.90
2018,07,11,06,22,13.00
2018,07,11,06,23,13.00
2018,07,11,06,24,13.10
2018,07,11,06,25,13.10
2018,07,11,06,26,13.20
2018,07,11,06,27,13.30
2018,07,11,06,28,13.30
2018,07,11,06,29,13.30
2018,07,11,06,30,13.40
2018,07,11,06,31,13.50
2018,07,11,06,32,13.50
2018,07,11,06,33,13.60
2018,07,11,06,34,13.60
2018,07,11,06,35,13.70
2018,07,11,06,36,13.70
2018,07,11,06,37,13.80
2018,07,11,06,38,13.80
2018,07,11,06,39,13.90
2018,07,11,06,40,13.90
2018,07,11,06,41,14.00
2018,07,11,06,42,14.00
2018,07,11,06,43,14.10
2018,07,11,06,44,14.10
2018,07,11,06,45,14.20
2018,07,11,06,46,14.20
2018,07,11,06,47,14.30
2018,07,11,06,48,14.30
2018,07,11,06,49,14.30
2018,07,11,06,50,14.40
2018,07,11,06,51,14.50
2018,07,11,06,52,14.50
2018,07,11,06,53,14.60
2018,07,11,06,54,14.70
2018,07,11,06,55,14.70
2018,07,11,06,56,14.70
2018,07,11,06,57,14.80
2018,07,11,06,58,14.80
2018,07,11,06,59,14.80
2018,07,11,07,00,14.90
2018,07,11,07,01,14.90
2018,07,11,07,02,14.90
2018,07,11,07,03,15.00
2018,07,11,07,04,15.10
2018,07,11,07,05,15.10
2018,07,11,07,06,15.20
2018,07,11,07,07,15.20
2018,07,11,07,08,15.20
2018,07,11,07,09,15.30
2018,07,11,07,10,15.30
2018,07,11,07,11,15.40
2018,07,11,07,12,15.40
2018,07,11,07,13,15.50
2018,07,11,07,14,15.50
2018,07,11,07,15,15.60
2018,07,11,07,16,15.70
2018,07,11,07,17,15.70
2018,07,11,07,18,15.80
2018,07,11,07,19,15.90
2018,07,11,07,20,15.90
2018,07,11,07,21,16.00
2018,07,11,07,22,16.10
2018,07,11,07,23,16.20
2018,07,11,07,24,16.30
2018,07,11,07,25,16.30
2018,07,11,07,26,16.40
2018,07,11,07,27,16.50
2018,07,11,07,28,16.50
2018,07,11,07,29,16.60
2018,07,11,07,30,16.60
2018,07,11,07,31,16.70
2018,07,11,07,32,16.70
2018,07,11,07,33,16.80
2018,07,11,07,34,16.90
2018,07,11,07,35,17.00
2018,07,11,07,36,17.00
2018,07,11,07,37,17.10
2018,07,11,07,38,17.20
2018,07,11,07,39,17.20
2018,07,11,07,40,17.20
2018,07,11,07,41,17.30
2018,07,11,07,42,17.30
2018,07,11,07,43,17.30
2018,07,11,07,44,17.30
2018,07,11,07,45,17.30
2018,07,11,07,46,17.30
2018,07,11,07,47,17.40
2018,07,11,07,48,17.40
2018,07,11,07,49,17.40
2018,07,11,07,50,17.40
2018,07,11,07,51,17.40
2018,07,11,07,52,17.40
2018,07,11,07,53,17.40
2018,07,11,07,54,17.40
2018,07,11,07,55,17.40
2018,07,11,07,56,17.40
2018,07,11,07,57,17.40
2018,07,11,07,58,17.40
2018,07,11,07,59,17.40
2018,07,11,08,00,17.40
2018,07,11,08,01,17.40
2018,07,11,08,02,17.40
2018,07,11,08,03,17.50
2018,07,11,08,04,17.50
2018,07,11,08,05,17.50
2018,07,11,08,06,17.60
2018,07,11,08,07,17.60
2018,07,11,08,08,17.60
2018,07,11,08,09,17.60
2018,07,11,08,10,17.60
2018,07,11,08,11,17.60
2018,07,11,08,12,17.60
2018,07,11,08,13,17.70
2018,07,11,08,14,17.70
2018,07,11,08,15,17.70
2018,07,11,08,16,17.70
2018,07,11,08,17,17.70
2018,07,11,08,18,17.80
2018,07,11,08,19,17.80
2018,07,11,08,20,17.80
2018,07,11,08,21,17.90
2018,07,11,08,22,17.90
2018,07,11,08,23,17.90
2018,07,11,08,24,17.90
2018,07,11,08,25,17.90
2018,07,11,08,26,17.90
2018,07,11,08,27,17.90
2018,07,11,08,28,17.90
2018,07,11,08,29,17.90
2018,07,11,08,30,18.00
2018,07,11,08,31,17.90
2018,07,11,08,32,17.90
2018,07,11,08,33,17.90
2018,07,11,08,34,17.80
2018,07,11,08,35,17.80
2018,07,11,08,36,17.90
2018,07,11,08,37,17.90
2018,07,11,08,38,18.00
2018,07,11,08,39,18.00
2018,07,11,08,40,18.10
2018,07,11,08,41,18.10
2018,07,11,08,42,18.10
2018,07,11,08,43,18.10
2018,07,11,08,44,18.10
2018,07,11,08,45,18.10
2018,07,11,08,46,18.20
2018,07,11,08,47,18.20
2018,07,11,08,48,18.20
2018,07,11,08,49,18.20
2018,07,11,08,50,18.20
2018,07,11,08,51,18.20
2018,07,11,08,52,18.30
2018,07,11,08,53,18.30
2018,07,11,08,54,18.30
2018,07,11,08,55,18.20
2018,07,11,08,56,18.30
2018,07,11,08,57,18.30
2018,07,11,08,58,18.30
2018,07,11,08,59,18.30
2018,07,11,09,00,18.30
2018,07,11,09,01,18.30
2018,07,11,09,02,18.30
2018,07,11,09,03,18.30
2018,07,11,09,04,18.20
2018,07,11,09,05,18.20
2018,07,11,09,06,18.30
2018,07,11,09,07,18.30
2018,07,11,09,08,18.40
2018,07,11,09,09,18.40
2018,07,11,09,10,18.50
2018,07,11,09,11,18.50
2018,07,11,09,12,18.50
2018,07,11,09,13,18.60
2018,07,11,09,14,18.60
2018,07,11,09,15,18.60
2018,07,11,09,16,18.60
2018,07,11,09,17,18.60
2018,07,11,09,18,18.60
2018,07,11,09,19,18.60
2018,07,11,09,20,18.60
2018,07,11,09,21,18.70
2018,07,11,09,22,18.70
2018,07,11,09,23,18.80
2018,07,11,09,24,18.80
2018,07,11,09,25,18.80
2018,07,11,09,26,18.80
2018,07,11,09,27,18.80
2018,07,11,09,28,18.70
2018,07,11,09,29,18.70
2018,07,11,09,30,18.70
2018,07,11,09,31,18.70
2018,07,11,09,32,18.70
2018,07,11,09,33,18.70
2018,07,11,09,34,18.70
2018,07,11,09,35,18.70
2018,07,11,09,36,18.70
2018,07,11,09,37,18.80
2018,07,11,09,38,18.80
2018,07,11,09,39,18.90
2018,07,11,09,40,18.90
2018,07,11,09,41,18.90
2018,07,11,09,42,18.90
2018,07,11,09,43,19.00
2018,07,11,09,44,19.00
2018,07,11,09,45,19.00
2018,07,11,09,46,19.00
2018,07,11,09,47,18.90
2018,07,11,09,48,18.90
2018,07,11,09,49,18.90
2018,07,11,09,50,19.00
2018,07,11,09,51,19.00
2018,07,11,09,52,19.00
2018,07,11,09,53,19.00
2018,07,11,09,54,19.10
2018,07,11,09,55,19.10
2018,07,11,09,56,19.10
2018,07,11,09,57,19.10
2018,07,11,09,58,19.10
2018,07,11,09,59,19.20
2018,07,11,10,00,19.20
2018,07,11,10,01,19.20
2018,07,11,10,02,19.20
2018,07,11,10,03,19.30
2018,07,11,10,04,19.40
2018,07,11,10,05,19.40
2018,07,11,10,06,19.50
2018,07,11,10,07,19.50
2018,07,11,10,08,19.50
2018,07,11,10,09,19.60
2018,07,11,10,10,19.60
2018,07,11,10,11,19.70
2018,07,11,10,12,19.70
2018,07,11,10,13,19.80
2018,07,11,10,14,19.80
2018,07,11,10,15,19.80
2018,07,11,10,16,19.70
2018,07,11,10,17,19.70
2018,07,11,10,18,19.80
2018,07,11,10,19,19.80
2018,07,11,10,20,19.80
2018,07,11,10,21,19.80
2018,07,11,10,22,19.80
2018,07,11,10,23,19.80
2018,07,11,10,24,19.80
2018,07,11,10,25,19.80
2018,07,11,10,26,19.90
2018,07,11,10,27,19.90
2018,07,11,10,28,19.90
2018,07,11,10,29,19.90
2018,07,11,10,30,19.90
2018,07,11,10,31,19.90
2018,07,11,10,32,19.90
2018,07,11,10,33,19.90
2018,07,11,10,34,19.90
2018,07,11,10,35,19.90
2018,07,11,10,36,20.00
2018,07,11,10,37,20.00
2018,07,11,10,38,20.10
2018,07,11,10,39,20.10
2018,07,11,10,40,20.20
2018,07,11,10,41,20.20
2018,07,11,10,42,20.20
2018,07,11,10,43,20.20
2018,07,11,10,44,20.30
2018,07,11,10,45,20.30
2018,07,11,10,46,20.30
2018,07,11,10,47,20.30
2018,07,11,10,48,20.30
2018,07,11,10,49,20.30
2018,07,11,10,50,20.30
2018,07,11,10,51,20.40
2018,07,11,10,52,20.40
2018,07,11,10,53,20.40
2018,07,11,10,54,20.40
2018,07,11,10,55,20.40
2018,07,11,10,56,20.30
2018,07,11,10,57,20.30
2018,07,11,10,58,20.30
2018,07,11,10,59,20.30
2018,07,11,11,00,20.40
2018,07,11,11,01,20.50
2018,07,11,11,02,20.50
2018,07,11,11,03,20.60
2018,07,11,11,04,20.70
2018,07,11,11,05,20.80
2018,07,11,11,06,20.80
2018,07,11,11,07,20.80
2018,07,11,11,08,20.80
2018,07,11,11,09,20.80
2018,07,11,11,10,20.70
2018,07,11,11,11,20.70
2018,07,11,11,12,20.70
2018,07,11,11,13,20.70
2018,07,11,11,14,20.70
2018,07,11,11,15,20.80
2018,07,11,11,16,20.80
2018,07,11,11,17,20.80
2018,07,11,11,18,20.70
2018,07,11,11,19,20.70
2018,07,11,11,20,20.70
2018,07,11,11,21,20.70
2018,07,11,11,22,20.80
2018,07,11,11,23,20.80
2018,07,11,11,24,20.90
2018,07,11,11,25,20.90
2018,07,11,11,26,20.90
2018,07,11,11,27,21.00
2018,07,11,11,28,21.00
2018,07,11,11,29,21.00
2018,07,11,11,30,21.00
2018,07,11,11,31,21.00
2018,07,11,11,32,21.00
2018,07,11,11,33,21.10
2018,07,11,11,34,21.10
2018,07,11,11,35,21.00
2018,07,11,11,36,21.00
2018,07,11,11,37,21.00
2018,07,11,11,38,21.00
2018,07,11,11,39,20.90
2018,07,11,11,40,20.90
2018,07,11,11,41,21.00
2018,07,11,11,42,21.10
2018,07,11,11,43,21.20
2018,07,11,11,44,21.20
2018,07,11,11,45,21.20
2018,07,11,11,46,21.30
2018,07,11,11,47,21.30
2018,07,11,11,48,21.30
2018,07,11,11,49,21.30
2018,07,11,11,50,21.30
2018,07,11,11,51,21.40
2018,07,11,11,52,21.40
2018,07,11,11,53,21.40
2018,07,11,11,54,21.40
2018,07,11,11,55,21.40
2018,07,11,11,56,21.40
2018,07,11,11,57,21.50
2018,07,11,11,58,21.50
2018,07,11,11,59,21.40
2018,07,11,12,00,21.40
2018,07,11,12,01,21.30
2018,07,11,12,02,21.20
2018,07,11,12,03,21.20
2018,07,11,12,04,21.20
2018,07,11,12,05,21.20
2018,07,11,12,06,21.20
2018,07,11,12,07,21.20
2018,07,11,12,08,21.20
2018,07,11,12,09,21.20
2018,07,11,12,10,21.10
2018,07,11,12,11,21.10
2018,07,11,12,12,21.00
2018,07,11,12,13,20.90
2018,07,11,12,14,20.90
2018,07,11,12,15,20.90
2018,07,11,12,16,20.90
2018,07,11,12,17,21.00
2018,07,11,12,18,21.00
2018,07,11,12,19,21.10
2018,07,11,12,20,21.10
2018,07,11,12,21,21.20
2018,07,11,12,22,21.10
2018,07,11,12,23,21.10
2018,07,11,12,24,21.20
2018,07,11,12,25,21.10
2018,07,11,12,26,21.10
2018,07,11,12,27,21.10
2018,07,11,12,28,21.10
2018,07,11,12,29,21.10
2018,07,11,12,30,21.10
2018,07,11,12,31,21.20
2018,07,11,12,32,21.20
2018,07,11,12,33,21.30
2018,07,11,12,34,21.30
2018,07,11,12,35,21.40
2018,07,11,12,36,21.40
2018,07,11,12,37,21.40
2018,07,11,12,38,21.40
2018,07,11,12,39,21.30
2018,07,11,12,40,21.20
2018,07,11,12,41,21.10
2018,07,11,12,42,21.10
2018,07,11,12,43,21.10
2018,07,11,12,44,21.10
2018,07,11,12,45,21.10
2018,07,11,12,46,21.10
2018,07,11,12,47,21.00
2018,07,11,12,48,21.10
2018,07,11,12,49,21.10
2018,07,11,12,50,21.10
2018,07,11,12,51,21.10
2018,07,11,12,52,21.10
2018,07,11,12,53,21.10
2018,07,11,12,54,21.10
2018,07,11,12,55,21.20
2018,07,11,12,56,21.30
2018,07,11,12,57,21.40
2018,07,11,12,58,21.40
2018,07,11,12,59,21.50
2018,07,11,13,00,21.50
2018,07,11,13,01,21.50
2018,07,11,13,02,21.60
2018,07,11,13,03,21.60
2018,07,11,13,04,21.60
2018,07,11,13,05,21.60
2018,07,11,13,06,21.60
2018,07,11,13,07,21.70
2018,07,11,13,08,21.70
2018,07,11,13,09,21.70
2018,07,11,13,10,21.70
2018,07,11,13,11,21.70
2018,07,11,13,12,21.70
2018,07,11,13,13,21.70
2018,07,11,13,14,21.70
2018,07,11,13,15,21.70
2018,07,11,13,16,21.70
2018,07,11,13,17,21.70
2018,07,11,13,18,21.80
2018,07,11,13,19,21.80
2018,07,11,13,20,22.00
2018,07,11,13,21,22.10
2018,07,11,13,22,22.20
2018,07,11,13,23,22.20
2018,07,11,13,24,22.30
2018,07,11,13,25,22.30
2018,07,11,13,26,22.40
2018,07,11,13,27,22.50
2018,07,11,13,28,22.60
2018,07,11,13,29,22.60
2018,07,11,13,30,22.60
2018,07,11,13,31,22.60
2018,07,11,13,32,22.60
2018,07,11,13,33,22.50
2018,07,11,13,34,22.40
2018,07,11,13,35,22.40
2018,07,11,13,36,22.50
2018,07,11,13,37,22.60
2018,07,11,13,38,22.60
2018,07,11,13,39,22.60
2018,07,11,13,40,22.60
2018,07,11,13,41,22.50
2018,07,11,13,42,22.50
2018,07,11,13,43,22.50
2018,07,11,13,44,22.50
2018,07,11,13,45,22.60
2018,07,11,13,46,22.70
2018,07,11,13,47,22.70
2018,07,11,13,48,22.80
2018,07,11,13,49,22.80
2018,07,11,13,50,22.80
2018,07,11,13,51,22.80
2018,07,11,13,52,22.70
2018,07,11,13,53,22.70
2018,07,11,13,54,22.70
2018,07,11,13,55,22.80
2018,07,11,13,56,22.90
2018,07,11,13,57,22.90
2018,07,11,13,58,23.00
2018,07,11,13,59,23.10
2018,07,11,14,00,23.20
2018,07,11,14,01,23.20
2018,07,11,14,02,23.20
2018,07,11,14,03,23.20
2018,07,11,14,04,23.20
2018,07,11,14,05,23.20
2018,07,11,14,06,23.20
2018,07,11,14,07,23.20
2018,07,11,14,08,23.20
2018,07,11,14,09,23.20
2018,07,11,14,10,23.10
2018,07,11,14,11,23.10
2018,07,11,14,12,23.10
2018,07,11,14,13,23.10
2018,07,11,14,14,23.20
2018,07,11,14,15,23.20
2018,07,11,14,16,23.30
2018,07,11,14,17,23.30
2018,07,11,14,18,23.40
2018,07,11,14,19,23.40
2018,07,11,14,20,23.40
2018,07,11,14,21,23.40
2018,07,11,14,22,23.50
2018,07,11,14,23,23.50
2018,07,11,14,24,23.60
2018,07,11,14,25,23.50
2018,07,11,14,26,23.50
2018,07,11,14,27,23.50
2018,07,11,14,28,23.40
2018,07,11,14,29,23.40
2018,07,11,14,30,23.40
2018,07,11,14,31,23.40
2018,07,11,14,32,23.40
2018,07,11,14,33,23.40
2018,07,11,14,34,23.30
2018,07,11,14,35,23.40
2018,07,11,14,36,23.40
2018,07,11,14,37,23.40
2018,07,11,14,38,23.50
2018,07,11,14,39,23.50
2018,07,11,14,40,23.50
2018,07,11,14,41,23.50
2018,07,11,14,42,23.50
2018,07,11,14,43,23.50
2018,07,11,14,44,23.50
2018,07,11,14,45,23.40
2018,07,11,14,46,23.40
2018,07,11,14,47,23.40
2018,07,11,14,48,23.40
2018,07,11,14,49,23.50
2018,07,11,14,50,23.60
2018,07,11,14,51,23.60
2018,07,11,14,52,23.60
2018,07,11,14,53,23.60
2018,07,11,14,54,23.60
2018,07,11,14,55,23.50
2018,07,11,14,56,23.40
2018,07,11,14,57,23.20
2018,07,11,14,58,23.00
2018,07,11,14,59,22.60
2018,07,11,15,00,22.20
2018,07,11,15,01,22.00
2018,07,11,15,02,21.80
2018,07,11,15,03,21.60
2018,07,11,15,04,21.50
2018,07,11,15,05,21.50
2018,07,11,15,06,21.50
2018,07,11,15,07,21.60
2018,07,11,15,08,21.60
2018,07,11,15,09,21.60
2018,07,11,15,10,21.70
2018,07,11,15,11,21.70
2018,07,11,15,12,21.60
2018,07,11,15,13,21.60
2018,07,11,15,14,21.60
2018,07,11,15,15,21.60
2018,07,11,15,16,21.50
2018,07,11,15,17,21.40
2018,07,11,15,18,21.20
2018,07,11,15,19,21.10
2018,07,11,15,20,20.90
2018,07,11,15,21,20.80
2018,07,11,15,22,20.80
2018,07,11,15,23,20.90
2018,07,11,15,24,21.00
2018,07,11,15,25,21.10
2018,07,11,15,26,21.10
2018,07,11,15,27,21.20
2018,07,11,15,28,21.20
2018,07,11,15,29,21.30
2018,07,11,15,30,21.40
2018,07,11,15,31,21.40
2018,07,11,15,32,21.50
2018,07,11,15,33,21.60
2018,07,11,15,34,21.60
2018,07,11,15,35,21.60
2018,07,11,15,36,21.50
2018,07,11,15,37,21.50
2018,07,11,15,38,21.40
2018,07,11,15,39,21.30
2018,07,11,15,40,21.20
2018,07,11,15,41,21.10
2018,07,11,15,42,21.00
2018,07,11,15,43,21.00
2018,07,11,15,44,21.10
2018,07,11,15,45,21.10
2018,07,11,15,46,21.10
2018,07,11,15,47,21.10
2018,07,11,15,48,21.10
2018,07,11,15,49,21.10
2018,07,11,15,50,21.20
2018,07,11,15,51,21.20
2018,07,11,15,52,21.30
2018,07,11,15,53,21.30
2018,07,11,15,54,21.40
2018,07,11,15,55,21.50
2018,07,11,15,56,21.50
2018,07,11,15,57,21.50
2018,07,11,15,58,21.50
2018,07,11,15,59,21.50
2018,07,11,16,00,21.60
2018,07,11,16,01,21.60
2018,07,11,16,02,21.60
2018,07,11,16,03,21.60
2018,07,11,16,04,21.50
2018,07,11,16,05,21.50
2018,07,11,16,06,21.50
2018,07,11,16,07,21.50
2018,07,11,16,08,21.50
2018,07,11,16,09,21.40
2018,07,11,16,10,21.40
2018,07,11,16,11,21.40
2018,07,11,16,12,21.50
2018,07,11,16,13,21.50
2018,07,11,16,14,21.60
2018,07,11,16,15,21.60
2018,07,11,16,16,21.60
2018,07,11,16,17,21.60
2018,07,11,16,18,21.70
2018,07,11,16,19,21.70
2018,07,11,16,20,21.70
2018,07,11,16,21,21.70
2018,07,11,16,22,21.80
2018,07,11,16,23,21.90
2018,07,11,16,24,22.00
2018,07,11,16,25,22.10
2018,07,11,16,26,22.10
2018,07,11,16,27,22.10
2018,07,11,16,28,22.10
2018,07,11,16,29,22.10
2018,07,11,16,30,22.00
2018,07,11,16,31,22.00
2018,07,11,16,32,22.10
2018,07,11,16,33,22.10
2018,07,11,16,34,22.10
2018,07,11,16,35,22.10
2018,07,11,16,36,22.00
2018,07,11,16,37,22.00
2018,07,11,16,38,22.00
2018,07,11,16,39,21.90
2018,07,11,16,40,21.80
2018,07,11,16,41,21.80
2018,07,11,16,42,21.70
2018,07,11,16,43,21.60
2018,07,11,16,44,21.60
2018,07,11,16,45,21.60
2018,07,11,16,46,21.50
2018,07,11,16,47,21.50
2018,07,11,16,48,21.50
2018,07,11,16,49,21.60
2018,07,11,16,50,21.60
2018,07,11,16,51,21.60
2018,07,11,16,52,21.60
2018,07,11,16,53,21.60
2018,07,11,16,54,21.60
2018,07,11,16,55,21.60
2018,07,11,16,56,21.60
2018,07,11,16,57,21.60
2018,07,11,16,58,21.60
2018,07,11,16,59,21.70
2018,07,11,17,00,21.70
2018,07,11,17,01,21.70
2018,07,11,17,02,21.70
2018,07,11,17,03,21.70
2018,07,11,17,04,21.80
2018,07,11,17,05,21.80
2018,07,11,17,06,21.90
2018,07,11,17,07,21.90
2018,07,11,17,08,21.90
2018,07,11,17,09,22.00
2018,07,11,17,10,22.00
2018,07,11,17,11,22.00
2018,07,11,17,12,21.90
2018,07,11,17,13,21.90
2018,07,11,17,14,21.90
2018,07,11,17,15,21.80
2018,07,11,17,16,21.80
2018,07,11,17,17,21.80
2018,07,11,17,18,21.90
2018,07,11,17,19,21.90